Bismarck, ND

6:28 AM CST on February 26, 2017 (GMT -0600)
Bismarck Municipal

Weather History for KBIS - February, 2013

Change the Weather History Date:

Monday, February 11, 2013

  Actual Average Record
Temperature  
Mean Temperature 19 °F 17 °F  
Max Temperature 25 °F 27 °F 58 °F (2005)
Min Temperature 13 °F 6 °F -35 °F (1988)
Degree Days  
Heating Degree Days 46 48  
Month to date heating degree days 483 545  
Since 1 July heating degree days 5589 5663  
Cooling Degree Days 0 0  
Month to date cooling degree days 0 0  
Year to date cooling degree days 0 0  
Moisture  
Dew Point 16 °F    
Average Humidity 80    
Maximum Humidity 91    
Minimum Humidity 68    
Precipitation  
Precipitation T in 0.02 in 0.22 in (1922)
Month to date precipitation 0.09 0.15  
Year to date precipitation 0.34 0.58  
Snow  
Snow T in 0.30 in 4.80 in (1979)
Month to date snowfall 1.0 2.8  
Since 1 July snowfall 26.1 32.2  
Snow Depth 3.00 in    
Sea Level Pressure  
Sea Level Pressure 30.04 in    
Wind  
Wind Speed 9 mph (WNW)    
Max Wind Speed 26 mph    
Max Gust Speed 33 mph    
Visibility 9 miles    
Events Snow    
T = Trace of Precipitation, MM = Missing Value Source: NWS Daily Summary

Daily Weather History Graph

Daily Weather History Graph

Search for Another Location

Airport or City:

Trip Planner

Search our weather history database for the weather conditions in past years. The results will help you decide how hot, cold, wet, or windy it might be!

Date:

Astronomy

Feb. 11, 2013 Rise Set
Actual Time 7:52 AM CST 6:02 PM CST
Civil Twilight 7:21 AM CST 6:33 PM CST
Nautical Twilight 6:45 AM CST 7:09 PM CST
Astronomical Twilight 6:10 AM CST 7:44 PM CST
Moon 8:09 AM CST (2/11) 8:12 PM CST (2/11)
Length of Visible Light 11h 12m
Length of Day
10h 09m
Waxing Crescent, 3% of the Moon is Illuminated
Feb 11
Waxing Crescent
Feb 17
First Quarter
Feb 25
Full
Mar 4
Last Quarter
Mar 11
New

Hourly Weather History & Observations

Time (CST) Temp. Windchill Dew Point Humidity Pressure Visibility Wind Dir Wind Speed Gust Speed Precip Events Conditions
12:52 AM 19.9 °F 8.6 °F 17.1 °F 89% 30.02 in 8.0 mi NW 10.4 mph 20.7 mph N/A   Overcast
1:40 AM 21.0 °F 6.2 °F 17.1 °F 85% 29.95 in 10.0 mi NW 18.4 mph 25.3 mph N/A   Overcast
1:52 AM 21.0 °F 6.2 °F 17.1 °F 85% 30.03 in 10.0 mi NW 18.4 mph 25.3 mph N/A   Overcast
2:52 AM 21.0 °F 8.1 °F 17.1 °F 85% 30.04 in 10.0 mi NW 13.8 mph - N/A   Overcast
3:52 AM 21.0 °F 6.2 °F 17.1 °F 85% 30.04 in 10.0 mi NW 18.4 mph 26.5 mph N/A   Overcast
4:52 AM 21.0 °F 5.7 °F 16.0 °F 81% 30.06 in 10.0 mi NW 19.6 mph 32.2 mph N/A   Overcast
5:19 AM 19.9 °F 4.3 °F 15.1 °F 81% 29.99 in 10.0 mi NNW 19.6 mph 29.9 mph N/A   Overcast
5:52 AM 19.9 °F 5.7 °F 15.1 °F 81% 30.07 in 10.0 mi NNW 16.1 mph - N/A   Overcast
6:52 AM 19.9 °F 7.3 °F 15.1 °F 81% 30.09 in 10.0 mi NNW 12.7 mph - N/A   Overcast
7:52 AM 19.9 °F 10.1 °F 15.1 °F 81% 30.10 in 10.0 mi North 8.1 mph - N/A   Overcast
8:45 AM 21.0 °F 9.3 °F 17.1 °F 85% 30.02 in 8.0 mi NW 11.5 mph - N/A   Overcast
8:52 AM 21.0 °F 9.3 °F 17.1 °F 85% 30.11 in 8.0 mi NW 11.5 mph - N/A   Overcast
9:52 AM 21.0 °F 9.9 °F 17.1 °F 85% 30.12 in 4.0 mi NW 10.4 mph - 0.00 in Snow Light Snow
10:41 AM 21.0 °F 10.6 °F 17.1 °F 85% 30.04 in 7.0 mi WNW 9.2 mph - 0.00 in   Overcast
10:52 AM 21.0 °F 10.6 °F 16.0 °F 81% 30.13 in 10.0 mi WNW 9.2 mph - 0.00 in   Overcast
11:34 AM 21.0 °F 10.6 °F 16.0 °F 81% 30.04 in 2.5 mi NW 9.2 mph - 0.00 in Snow Light Snow
11:50 AM 21.2 °F 9.5 °F 15.8 °F 80% 30.04 in 3.0 mi WNW 11.5 mph - 0.00 in Snow Light Snow
11:52 AM 21.9 °F 11.0 °F 16.0 °F 78% 30.13 in 3.0 mi NW 10.4 mph - 0.00 in Snow Light Snow
12:52 PM 21.9 °F 11.0 °F 15.1 °F 75% 30.11 in 10.0 mi NW 10.4 mph - 0.00 in   Overcast
1:52 PM 21.9 °F 10.4 °F 15.1 °F 75% 30.09 in 10.0 mi West 11.5 mph - 0.00 in   Overcast
2:52 PM 23.0 °F 11.1 °F 16.0 °F 74% 30.07 in 10.0 mi West 12.7 mph - N/A   Overcast
3:52 PM 24.1 °F 13.7 °F 16.0 °F 71% 30.05 in 10.0 mi West 10.4 mph - N/A   Overcast
4:52 PM 25.0 °F 14.2 °F 17.1 °F 72% 30.04 in 10.0 mi WSW 11.5 mph - N/A   Overcast
5:28 PM 24.1 °F 16.0 °F 17.1 °F 75% 29.94 in 10.0 mi WSW 6.9 mph - N/A   Scattered Clouds
5:52 PM 23.0 °F 14.7 °F 16.0 °F 74% 30.02 in 10.0 mi SW 6.9 mph - N/A   Clear
6:52 PM 19.0 °F 12.3 °F 14.0 °F 81% 30.02 in 10.0 mi South 4.6 mph - N/A   Clear
7:52 PM 17.1 °F - 12.9 °F 84% 30.00 in 10.0 mi Calm Calm - N/A   Mostly Cloudy
8:52 PM 19.0 °F - 15.1 °F 85% 29.98 in 10.0 mi Calm Calm - N/A   Overcast
9:52 PM 18.0 °F - 14.0 °F 84% 29.98 in 10.0 mi Calm Calm - N/A   Scattered Clouds
10:52 PM 19.9 °F - 16.0 °F 85% 29.94 in 10.0 mi Calm Calm - N/A   Overcast
11:52 PM 18.0 °F - 15.1 °F 88% 29.92 in 10.0 mi Calm Calm - N/A   Clear